Cumberland, WI

8:23 AM CST on December 12, 2019 (GMT -0600)
Cumberland Municipal

Weather History for KUBE - November, 2019

Change the Weather History Date:

Tuesday, November 19, 2019

  Actual Average (KRPD) Record (KRPD)
Temperature  
Mean Temperature 32 °F -  
Max Temperature 33 °F 36 °F 53 °F (2012)
Min Temperature 30 °F 23 °F 12 °F (1996)
Degree Days  
Heating Degree Days 34    
Moisture  
Dew Point 31 °F    
Average Humidity 97    
Maximum Humidity 100    
Minimum Humidity 93    
Precipitation  
Precipitation 0.00 in - - ()
Sea Level Pressure  
Sea Level Pressure 29.79 in    
Wind  
Wind Speed 3 mph ()    
Max Wind Speed 7 mph    
Max Gust Speed -    
Visibility 1.7 miles    
Events Fog    
Averages and records for this station are not official NWS values.
T = Trace of Precipitation, MM = Missing Value Source: Averaged Metar Reports

Daily Weather History Graph

Daily Weather History Graph

Search for Another Location

Airport or City:

Astronomy

Nov. 19, 2019 Rise Set
Actual Time 7:12 AM CST 4:33 PM CST
Civil Twilight 6:39 AM CST 5:06 PM CST
Nautical Twilight 6:03 AM CST 5:42 PM CST
Astronomical Twilight 5:28 AM CST 6:17 PM CST
Moon 11:33 PM CST (11/19) 1:20 PM CST (11/19)
Length of Visible Light 10h 26m
Length of Day
9h 21m
Waning Gibbous, 51% of the Moon is Illuminated
Nov 19
Waning Gibbous
Nov 19
Last Quarter
Nov 26
New
Dec 4
First Quarter
Dec 11
Full

Hourly Weather History & Observations

Time (CST) Temp. Windchill Dew Point Humidity Pressure Visibility Wind Dir Wind Speed Gust Speed Precip Events Conditions
12:15 AM 30.2 °F 25.4 °F 28.4 °F 93% 29.69 in 5.0 mi ESE 4.6 mph - N/A   Overcast
12:35 AM 30.2 °F 24.3 °F 28.4 °F 93% 29.69 in 5.0 mi SE 5.8 mph - N/A   Overcast
12:55 AM 30.2 °F 25.4 °F 28.4 °F 93% 29.69 in 5.0 mi SE 4.6 mph - N/A   Overcast
1:15 AM 30.2 °F 25.4 °F 28.4 °F 93% 29.69 in 5.0 mi SE 4.6 mph - N/A   Overcast
1:35 AM 30.2 °F 24.3 °F 28.4 °F 93% 29.68 in 4.0 mi SE 5.8 mph - N/A   Overcast
1:55 AM 30.2 °F 23.4 °F 28.4 °F 93% 29.68 in 3.0 mi SE 6.9 mph - N/A   Overcast
2:15 AM 30.2 °F 25.4 °F 28.4 °F 93% 29.69 in 2.5 mi SE 4.6 mph - N/A   Overcast
2:35 AM 30.2 °F 24.3 °F 28.4 °F 93% 29.68 in 1.5 mi SE 5.8 mph - N/A   Overcast
2:55 AM 30.2 °F 25.4 °F 28.4 °F 93% 29.68 in 1.2 mi SE 4.6 mph - N/A   Overcast
3:15 AM 30.2 °F 25.4 °F 28.4 °F 93% 29.68 in 1.2 mi SE 4.6 mph - N/A   Overcast
3:35 AM 30.2 °F 26.7 °F 28.4 °F 93% 29.68 in 1.2 mi SE 3.5 mph - N/A   Overcast
3:55 AM 30.2 °F 26.7 °F 28.4 °F 93% 29.68 in 1.2 mi SSE 3.5 mph - N/A   Overcast
4:15 AM 30.2 °F 25.4 °F 28.4 °F 93% 29.68 in 1.0 mi SE 4.6 mph - N/A   Overcast
4:35 AM 30.2 °F 26.7 °F 28.4 °F 93% 29.68 in 1.2 mi SSE 3.5 mph - N/A   Overcast
4:55 AM 30.2 °F 25.4 °F 28.4 °F 93% 29.69 in 1.0 mi SE 4.6 mph - N/A   Overcast
5:35 AM 30.2 °F 26.7 °F 28.4 °F 93% 29.70 in 1.0 mi SSE 3.5 mph - N/A   Overcast
5:55 AM 30.2 °F 26.7 °F 28.4 °F 93% 29.70 in 0.8 mi SE 3.5 mph - N/A   Overcast
6:15 AM 30.2 °F 26.7 °F 30.2 °F 100% 29.71 in 0.8 mi SSE 3.5 mph - N/A   Overcast
6:35 AM 30.2 °F 25.4 °F 30.2 °F 100% 29.71 in 0.8 mi SE 4.6 mph - N/A   Overcast
6:55 AM 30.2 °F 26.7 °F 30.2 °F 100% 29.71 in 0.8 mi SE 3.5 mph - N/A   Overcast
7:15 AM 30.2 °F 26.7 °F 30.2 °F 100% 29.72 in 0.8 mi SE 3.5 mph - N/A   Overcast
7:35 AM 30.2 °F 25.4 °F 30.2 °F 100% 29.72 in 0.2 mi SE 4.6 mph - N/A Fog Light Freezing Fog
7:55 AM 30.2 °F 26.7 °F 30.2 °F 100% 29.72 in 0.5 mi SE 3.5 mph - N/A Fog Light Freezing Fog
8:15 AM 30.2 °F 25.4 °F 30.2 °F 100% 29.72 in 0.5 mi ESE 4.6 mph - N/A Fog Light Freezing Fog
8:55 AM 30.2 °F 26.7 °F 30.2 °F 100% 29.74 in 0.2 mi SE 3.5 mph - N/A Fog Light Freezing Fog
9:15 AM 30.2 °F 26.7 °F 30.2 °F 100% 29.74 in 0.2 mi SE 3.5 mph - N/A Fog Light Freezing Fog
9:35 AM 30.2 °F 25.4 °F 30.2 °F 100% 29.75 in 0.5 mi SSE 4.6 mph - N/A Fog Light Freezing Fog
9:55 AM 32.0 °F 28.7 °F 30.2 °F 93% 29.76 in 0.5 mi SSE 3.5 mph - N/A Fog Light Freezing Fog
10:15 AM 32.0 °F 27.5 °F 30.2 °F 93% 29.77 in 1.0 mi South 4.6 mph - N/A   Overcast
10:35 AM 32.0 °F 28.7 °F 30.2 °F 93% 29.77 in 1.5 mi SSE 3.5 mph - N/A   Overcast
10:55 AM 32.0 °F 27.5 °F 32.0 °F 100% 29.77 in 2.0 mi South 4.6 mph - N/A   Overcast
11:15 AM 32.0 °F 27.5 °F 32.0 °F 100% 29.77 in 2.5 mi South 4.6 mph - N/A   Overcast
11:35 AM 32.0 °F 28.7 °F 32.0 °F 100% 29.77 in 3.0 mi SSE 3.5 mph - N/A   Overcast
11:55 AM 32.0 °F 27.5 °F 32.0 °F 100% 29.77 in 2.5 mi South 4.6 mph - N/A   Overcast
12:15 PM 32.0 °F 28.7 °F 32.0 °F 100% 29.78 in 2.5 mi South 3.5 mph - N/A   Overcast
12:35 PM 32.0 °F 28.7 °F 32.0 °F 100% 29.78 in 2.0 mi South 3.5 mph - N/A   Overcast
12:55 PM 32.0 °F - 32.0 °F 100% 29.79 in 2.0 mi Calm Calm - N/A   Overcast
1:15 PM 32.0 °F - 32.0 °F 100% 29.79 in 1.5 mi Calm Calm - N/A   Overcast
1:35 PM 32.0 °F 28.7 °F 32.0 °F 100% 29.80 in 1.2 mi South 3.5 mph - N/A   Overcast
1:55 PM 32.0 °F 28.7 °F 32.0 °F 100% 29.81 in 1.2 mi SW 3.5 mph - N/A   Light Drizzle
2:15 PM 32.0 °F 28.7 °F 32.0 °F 100% 29.81 in 1.0 mi South 3.5 mph - N/A   Overcast
2:55 PM 32.0 °F 28.7 °F 32.0 °F 100% 29.82 in 0.5 mi SSW 3.5 mph - N/A Fog Fog
3:15 PM 32.0 °F 28.7 °F 32.0 °F 100% 29.84 in 0.5 mi SW 3.5 mph - N/A Fog Fog
3:35 PM 32.0 °F 28.7 °F 32.0 °F 100% 29.84 in 0.2 mi SSW 3.5 mph - N/A Fog Fog
3:55 PM 32.0 °F 28.7 °F 32.0 °F 100% 29.85 in 0.2 mi SSW 3.5 mph - N/A Fog Fog
4:35 PM 32.0 °F - 32.0 °F 100% 29.85 in 0.2 mi Calm Calm - N/A Fog Fog
4:55 PM 32.0 °F - 32.0 °F 100% 29.85 in 0.2 mi Calm Calm - N/A Fog Fog
5:15 PM 32.0 °F - 32.0 °F 100% 29.86 in 0.2 mi Calm Calm - N/A Fog Fog
5:35 PM 32.0 °F - 32.0 °F 100% 29.86 in 0.2 mi Calm Calm - N/A Fog Fog
5:55 PM 32.0 °F - 32.0 °F 100% 29.87 in 0.2 mi Calm Calm - N/A Fog Fog
6:15 PM 32.0 °F - 32.0 °F 100% 29.87 in 0.2 mi Calm Calm - N/A Fog Fog
6:35 PM 32.0 °F - 32.0 °F 100% 29.88 in 0.2 mi Calm Calm - N/A Fog Fog
6:55 PM 32.0 °F - 32.0 °F 100% 29.89 in 0.2 mi Calm Calm - N/A Fog Fog
7:15 PM 32.0 °F - 32.0 °F 100% 29.89 in 0.2 mi Calm Calm - N/A Fog Fog
7:35 PM 32.0 °F - 32.0 °F 100% 29.90 in 0.2 mi Calm Calm - N/A Fog Fog
7:55 PM 32.0 °F - 32.0 °F 100% 29.90 in 0.5 mi Calm Calm - N/A Fog Fog
8:15 PM 32.0 °F - 32.0 °F 100% 29.90 in 0.5 mi Calm Calm - N/A Fog Fog
8:35 PM 32.0 °F 27.5 °F 32.0 °F 100% 29.92 in 0.8 mi WSW 4.6 mph - N/A   Overcast
9:15 PM 32.0 °F 27.5 °F 32.0 °F 100% 29.93 in 3.0 mi WSW 4.6 mph - N/A   Overcast
9:55 PM 33.8 °F 28.6 °F 32.0 °F 93% 29.94 in 3.0 mi West 5.8 mph - N/A   Overcast
10:15 PM 33.8 °F 30.8 °F 32.0 °F 93% 29.95 in 3.0 mi West 3.5 mph - N/A   Overcast
10:35 PM 33.8 °F 30.8 °F 32.0 °F 93% 29.95 in 4.0 mi WNW 3.5 mph - N/A   Overcast
10:55 PM 33.8 °F 29.6 °F 32.0 °F 93% 29.96 in 5.0 mi West 4.6 mph - N/A   Overcast
11:15 PM 33.8 °F 29.6 °F 32.0 °F 93% 29.96 in 5.0 mi West 4.6 mph - N/A   Overcast
11:35 PM 33.8 °F - 32.0 °F 93% 29.96 in 5.0 mi Calm Calm - N/A   Overcast
11:55 PM 33.8 °F - 33.8 °F 100% 29.96 in 7.0 mi Calm Calm - N/A   Overcast